Location: Birkenwerder
(52.6919°N, 13.2774°E)
Time: 23:37:49
(UTC+00:00)

Cosmos 1570 Rocket - Pass Details

Date: 02 October 2020
Orbit: 763 x 788 km, 74.1° (Epoch: 24 October)

Event Time Altitude Azimuth Distance (km) Brightness Sun altitude
Exits shadow 01:43:55 52° 100° (E) 973 4.6 -30.1°
Drops below altitude 10° 01:48:56 10° 33° (NNE) 2,363 7.4 -29.5°
Sets 01:51:23 0° 29° (NNE) 3,297 8.3 -29.2°
